Weather in Step

Russia / Zabaykalsky Krai     51°00′15″N   115°23′40″E
temp.,
°C
wind,
m/s
gust,
m/s
humid.,
%
clouds,
%
prec.,
mm/h
press.,
hPa
HPBL,
m
9 may, sun
sun900:00+6nne115259 0.0 100710
03:00+5nw115683 0.0 100710
06:00+4nne226168 0.0 100810
09:00+8ne224889 0.0 1008458
12:00+11nnw123788 0.0 10071591
15:00+13nw352698 0.0 10052863
18:00+13n653688 0.0 10051402
21:00+8e3559100 0.1 1007190
10 may, mon
mon1000:00+7ene2368100 0.3 100895
03:00+6se117336 0.3 100810
06:00+5ene1175100 0.0 100810
09:00+9ese2259100 0.0 1008453
12:00+13sse3343100 0.0 10061572
15:00+10se1257100 0.4 1007968
18:00+12nne3250100 0.0 10051098
21:00+9n3466100 0.0 100693
11 may, tue
tue1100:00+8nnw5678100 0.1 1006404
03:00+8n2580100 0.4 1005291
06:00+7n3784100 0.0 1004423
09:00+8nne5873100 0.0 1003875
12:00+9ne91365100 0.1 10031361
15:00+12nne81244100 0.2 10012123
18:00+14n81329100 0.0 10002962
21:00+10n3545100 0.0 100285
12 may, wed
wed1200:00+8wnw4853100 0.2 1004133
03:00+7nw5116837 0.2 1004256
06:00+5wnw49810 0.0 1006196
09:00+10nw68520 0.0 1006606
12:00+14nw810345 0.0 10052264
15:00+16nw892294 0.0 10043178
18:00+16nw682172 0.0 10033050
21:00+12wnw510315 0.0 1005237
13 may, thu
thu1300:00+9w38435 0.0 1006142
03:00+7w395772 0.0 1007196
06:00+7sw3362100 0.0 100742
09:00+10wnw5753100 0.0 1007760
12:00+10wnw91037100 0.0 10071351
15:00+12wnw71026100 0.0 10052833
18:00+11nnw883258 0.0 10062117
21:00+7nnw5105031 0.2 1009419